Theta_e
328 326 323 323 322 318 317 316 316 315 313 314 313 311 310 308 307 310 310 309 308 309 309 309 309 309 309 310 310 309 309 307 304 307 308 308 303 304 304 304 304 305 305
327 325 324 323 321 318 317 318 316 316 315 314 313 311 310 309 306 309 310 310 310 310 309 309 309 309 310 311 311 311 310 310 308 306 308 306 304 303 304 304 304 303 302
327 325 323 321 320 319 317 316 315 315 314 314 312 311 310 309 306 307 310 311 311 310 309 308 308 310 309 307 309 311 311 310 309 307 306 304 303 301 303 304 303 302 301
328 325 323 321 321 319 316 315 314 314 314 313 313 312 311 308 307 307 308 310 310 309 308 308 310 307 306 309 311 311 311 310 307 304 304 302 301 301 303 303 302 302 301
327 325 324 322 321 320 317 316 314 314 314 313 313 312 310 310 309 307 308 308 308 308 308 310 307 310 312 312 312 309 306 304 305 302 301 300 301 303 302 302 302 302 301
326 325 324 322 320 318 317 315 314 314 313 312 312 313 312 311 311 310 308 308 308 308 309 309 311 311 310 310 306 304 305 302 301 301 300 300 302 302 302 302 301 300 297
326 325 324 323 321 319 317 315 314 313 313 313 313 313 313 312 311 310 310 309 309 310 310 310 309 308 309 304 302 300 300 300 302 301 300 299 301 302 302 302 302 300 300
325 324 323 322 321 319 317 316 315 314 314 314 314 314 313 312 311 310 310 309 309 309 310 309 306 308 305 302 301 301 301 301 301 301 302 302 302 303 303 303 302 301 302
324 323 323 322 321 319 318 316 315 314 316 315 315 314 313 312 311 311 311 310 310 311 311 305 306 305 300 301 302 302 302 302 302 302 302 302 303 302 303 303 302 301 302
324 323 323 322 322 320 318 317 315 315 317 316 315 314 313 311 311 312 311 311 311 311 305 305 304 302 300 301 302 302 302 302 302 302 302 302 301 301 302 302 302 302 302
325 324 323 322 322 322 319 317 316 317 317 316 315 314 313 312 312 312 311 312 311 306 303 303 303 302 301 300 301 302 302 302 302 302 302 301 300 301 302 302 301 302 302
327 325 324 323 322 320 319 317 317 317 317 316 316 314 314 313 311 313 312 313 305 303 303 303 304 304 303 301 300 302 303 302 302 301 300 300 301 301 301 301 301 301 301
328 328 325 324 322 321 318 317 318 317 317 317 315 313 313 313 313 313 312 304 303 303 298 298 299 299 300 300 300 302 300 300 301 301 300 300 299 299 299 299 299 299 300
326 327 325 323 322 319 318 319 318 318 317 316 313 312 311 311 313 311 304 302 299 297 299 300 301 303 302 301 302 300 299 299 300 301 300 299 298 298 298 298 298 297 298
325 325 323 322 320 319 319 319 319 318 318 317 313 313 312 312 311 307 303 298 298 300 300 300 301 302 301 302 301 300 299 299 298 299 299 298 297 298 298 298 297 296 296
323 323 322 321 320 319 317 317 318 319 318 315 313 312 311 312 307 301 297 299 300 300 301 301 301 300 302 302 301 301 300 299 298 298 298 298 298 298 296 295 294 294 295
322 322 322 319 316 316 315 317 315 316 313 312 311 312 310 302 299 298 299 300 300 301 301 300 298 299 301 302 301 300 300 300 299 298 297 296 293 292 290 291 292 293 293
321 322 322 318 316 315 314 315 314 307 307 307 303 302 301 301 300 300 300 300 300 299 299 298 298 298 298 299 300 299 298 298 297 295 293 291 288 288 288 288 289 291 292
317 321 321 317 314 313 313 315 310 305 304 301 300 300 300 300 300 300 301 301 300 299 298 297 297 297 297 296 296 296 296 295 293 291 289 288 288 287 288 288 288 289 290
318 319 320 314 311 311 314 310 303 303 303 301 300 300 300 300 301 302 301 300 299 298 297 297 296 296 296 296 296 295 294 292 290 288 288 288 288 288 288 288 288 288 289
318 320 318 313 313 314 315 306 304 304 303 302 302 301 302 301 300 299 298 297 297 297 296 296 296 295 296 295 295 293 291 289 288 288 288 288 287 288 288 288 288 289 290
318 320 317 316 315 313 312 307 305 305 303 302 301 302 301 300 299 297 296 296 296 295 295 295 295 295 295 294 292 291 290 290 290 289 288 288 287 288 289 290 290 291 292
319 319 318 316 314 313 311 308 306 305 303 300 300 301 300 298 296 296 296 295 294 294 294 295 296 296 295 292 291 291 290 289 288 288 287 287 287 288 289 289 291 292 293
319 319 317 315 313 311 310 308 307 306 301 300 300 299 297 296 296 295 294 294 294 295 295 296 295 293 291 291 291 289 287 287 287 287 287 288 288 289 289 290 292 293 293
318 315 314 312 311 310 308 307 304 302 300 300 297 296 296 295 295 294 293 294 294 294 294 293 292 291 291 291 288 288 288 289 289 288 288 288 288 289 290 291 292 293 293
313 315 315 310 308 307 305 302 300 300 299 297 296 295 294 294 293 293 293 293 293 293 293 292 291 291 289 288 288 288 289 289 288 288 289 289 289 290 290 291 293 294 294
Wind_Speed
29 27 26 24 25 26 24 21 22 21 22 19 17 15 10 6 8 8 6 7 7 6 9 10 9 9 12 13 14 16 16 11 8 17 15 15 16 16 16 13 11 8 6
29 26 22 24 26 27 22 18 17 20 23 20 17 13 10 9 8 8 7 7 8 10 8 8 10 11 15 15 17 19 20 15 13 14 17 16 17 19 16 12 12 12 14
28 27 26 24 26 26 22 19 19 20 22 18 16 14 12 11 11 10 9 7 7 8 10 11 13 15 18 19 19 20 20 16 13 14 12 16 19 19 15 12 12 16 16
27 26 27 27 28 27 24 21 20 20 21 19 16 13 13 11 12 10 8 8 10 12 13 16 16 18 19 19 21 21 13 11 10 11 16 16 17 18 10 12 16 16 20
29 31 31 29 27 27 26 23 22 19 17 18 15 13 13 11 11 12 9 8 12 16 16 14 16 17 20 20 16 10 6 5 9 16 16 16 15 8 10 11 14 17 16
31 32 31 29 28 27 26 26 24 21 19 18 16 16 18 15 12 12 13 13 14 16 15 14 16 18 16 5 2 2 8 10 9 7 7 9 10 12 13 13 12 11 5
32 32 31 29 29 29 26 24 25 23 22 18 15 16 19 16 13 12 11 12 11 12 13 14 13 10 5 2 5 7 6 7 6 10 13 14 13 15 15 16 14 13 13
31 30 30 29 29 29 27 27 24 22 18 15 14 13 13 11 10 8 10 15 14 13 11 10 7 2 0 4 6 7 8 8 9 10 11 12 13 13 13 13 15 16 18
25 28 31 31 29 30 29 30 26 24 17 15 15 14 12 11 13 12 12 14 14 11 11 6 2 3 1 4 6 9 9 10 6 7 11 10 9 8 11 10 12 8 7
24 28 29 31 31 30 32 32 31 26 18 15 15 13 11 11 12 14 12 11 7 10 7 5 6 5 5 6 7 9 12 13 14 16 14 13 10 12 10 9 11 10 12
21 24 26 29 32 34 35 28 28 21 16 13 13 13 11 14 14 13 11 9 8 7 7 7 8 10 10 9 9 11 13 16 17 16 17 17 14 11 7 9 10 11 14
16 20 25 29 31 28 25 24 25 18 14 14 16 17 14 14 13 12 11 8 5 7 6 6 3 10 14 12 12 13 14 16 14 12 14 13 13 13 13 12 10 11 12
18 23 27 28 26 21 24 22 18 19 20 18 19 17 18 14 11 9 8 7 6 5 6 6 7 11 11 13 11 10 11 13 12 10 14 13 13 13 14 16 16 16 15
18 23 21 16 19 22 26 23 23 21 21 20 19 17 15 14 11 10 9 6 3 1 1 3 7 8 7 9 10 8 8 10 12 12 14 14 14 15 15 15 18 20 18
15 19 16 17 23 24 24 24 26 24 26 21 23 18 14 12 11 9 7 3 4 2 4 4 6 6 11 12 12 8 8 9 11 11 13 15 15 15 15 15 18 19 16
11 14 16 22 23 26 28 24 22 19 17 17 18 16 15 9 10 7 5 6 1 5 9 9 6 6 11 16 14 10 10 11 11 12 15 17 15 15 18 22 21 18 16
11 16 15 16 21 23 22 22 18 15 14 15 11 10 12 12 9 10 9 4 1 7 5 3 1 4 9 12 12 12 14 15 16 15 13 11 18 23 22 21 19 17 18
11 14 16 24 26 25 27 28 22 22 21 19 17 15 14 13 11 9 5 3 5 3 2 1 4 5 7 6 5 8 12 13 10 8 15 19 20 20 21 21 19 17 18
12 13 17 20 23 27 28 27 26 26 27 23 20 17 14 11 6 5 6 6 6 4 1 0 1 4 3 3 5 8 6 5 12 16 17 19 21 21 22 20 18 16 15
12 13 18 20 23 25 29 23 23 24 25 23 21 19 16 9 7 6 7 6 5 3 2 0 4 0 3 5 5 4 8 13 16 17 19 21 22 22 20 19 17 16 15
11 13 23 22 25 28 23 23 24 23 23 21 19 16 11 12 13 10 8 6 4 3 2 1 2 3 5 4 6 10 14 16 18 20 22 22 22 22 17 15 13 12 13
14 18 25 27 32 33 27 23 25 23 23 21 15 13 13 15 11 10 8 5 4 3 1 1 2 3 3 7 11 14 18 20 22 22 22 22 22 19 14 14 15 13 12
17 21 24 26 31 28 25 24 23 24 24 20 19 17 17 15 12 10 7 6 4 2 3 3 3 3 6 10 13 18 21 22 22 21 21 20 20 17 14 14 14 12 13
21 26 28 32 26 23 24 25 25 27 26 23 20 20 17 15 11 8 7 6 4 4 5 4 5 7 10 13 18 20 20 20 20 19 18 18 17 14 13 12 12 13 15
24 30 31 26 25 25 27 26 27 30 27 25 24 19 16 13 9 8 7 5 5 5 5 5 7 10 13 16 19 21 20 20 19 18 17 14 12 11 10 10 11 14 8
26 30 26 24 26 28 30 30 32 31 29 26 21 18 14 11 9 8 6 5 5 5 7 8 10 13 14 15 19 20 21 20 18 17 15 10 11 12 12 12 9 6 10
Wind_Direction
204 208 209 208 213 204 194 197 203 197 199 196 194 191 192 193 184 195 210 211 232 270 282 279 291 301 309 310 293 287 283 270 254 292 302 315 321 317 318 319 333 331 303
207 211 210 211 207 204 195 195 197 202 199 199 193 200 204 206 204 198 210 230 247 277 264 274 292 302 304 300 298 288 286 283 270 275 301 303 311 319 303 297 309 314 311
211 212 206 199 197 202 191 183 182 183 193 195 198 210 217 224 219 214 219 218 248 261 272 284 296 300 301 303 300 290 293 285 278 271 285 301 313 318 298 297 308 319 319
210 211 211 204 205 201 188 187 188 183 191 192 205 218 226 219 219 216 223 230 256 267 281 289 292 301 303 304 300 306 302 300 304 298 291 300 313 314 288 300 313 321 324
211 211 216 212 210 200 191 188 185 186 200 203 204 220 227 236 243 230 232 247 262 272 282 288 302 309 308 300 292 295 307 322 318 298 306 306 309 298 297 307 304 317 328
210 214 215 210 209 203 197 186 183 192 196 199 204 225 234 233 247 253 250 262 273 274 280 298 311 315 321 312 281 315 315 309 322 313 314 309 302 306 303 312 304 312 320
208 210 216 212 210 207 206 199 191 195 198 197 213 233 245 250 255 250 254 264 263 273 286 307 315 327 354 329 318 333 343 355 331 312 302 296 296 305 305 303 297 289 284
208 208 211 212 212 209 210 207 203 200 199 212 224 240 249 247 262 248 250 256 263 277 300 307 320 341 57 310 337 351 351 340 326 317 309 304 299 302 294 305 295 296 302
204 205 209 212 205 209 212 211 209 201 198 212 232 229 240 247 251 250 252 256 267 285 286 270 253 179 277 307 329 337 334 345 341 328 330 321 307 305 316 301 312 305 308
216 213 213 210 213 210 213 213 212 201 207 215 232 231 240 243 253 256 260 258 255 285 255 236 217 224 260 286 303 317 316 323 327 327 326 329 317 322 295 301 309 291 301
238 226 220 221 220 222 217 210 205 197 208 215 239 241 239 252 262 260 258 252 278 248 243 257 252 239 258 277 290 297 307 312 318 321 325 324 319 329 335 323 323 304 298
256 238 233 232 226 216 207 201 190 188 194 208 239 242 242 253 265 250 241 261 235 239 263 278 264 244 271 272 278 293 306 314 318 323 337 347 352 348 349 342 334 327 320
296 265 247 236 224 208 184 177 193 187 188 215 233 232 242 245 241 230 233 223 233 273 296 292 272 274 275 263 262 285 314 320 316 307 324 330 337 344 348 345 346 338 330
312 284 257 217 189 183 175 183 193 190 197 218 225 226 238 236 230 208 200 206 253 260 275 291 291 290 248 239 254 265 322 312 311 305 312 319 330 334 337 340 342 341 333
309 281 242 197 166 167 181 186 189 205 205 213 222 224 224 215 204 194 209 231 162 213 309 280 304 266 237 244 247 271 305 311 312 306 306 323 325 325 327 333 334 334 327
298 261 214 187 183 183 178 167 190 206 207 221 234 233 230 217 177 198 182 155 163 297 295 283 271 282 253 255 257 274 292 300 309 317 318 324 326 328 325 321 321 322 317
285 270 229 190 178 174 171 168 162 174 210 219 215 178 166 158 168 168 164 161 274 287 243 172 279 308 284 275 271 275 289 300 305 315 319 326 324 320 319 318 319 317 314
284 277 248 196 187 177 171 162 162 169 156 148 143 151 154 162 169 167 178 212 240 208 152 49 316 316 318 310 300 304 305 306 316 330 322 321 325 323 320 318 316 314 314
293 268 250 203 184 171 162 158 176 174 161 153 155 163 173 178 181 223 246 249 191 170 160 242 166 85 59 8 334 314 310 324 322 322 326 329 331 329 321 319 315 314 313
270 261 229 176 157 150 160 173 180 174 165 168 174 180 183 183 199 167 163 161 164 167 189 251 165 86 321 322 321 322 324 328 329 329 329 330 332 332 325 322 321 319 315
258 233 197 164 154 160 171 184 184 177 177 183 188 192 188 180 150 152 156 165 162 161 167 187 187 321 312 320 333 334 332 331 331 328 326 329 333 335 336 332 328 324 319
240 223 187 169 158 167 180 184 183 185 184 181 177 162 170 163 155 165 164 140 128 121 103 99 329 331 324 335 337 336 333 329 327 326 325 327 331 332 329 331 332 331 328
238 206 186 164 165 164 172 179 180 182 174 163 153 153 156 158 163 157 130 116 116 100 47 31 16 348 332 334 338 336 331 330 328 325 322 323 325 325 325 326 328 323 319
224 202 171 152 164 163 164 165 176 169 161 154 155 156 154 155 150 134 119 110 103 83 60 40 9 342 332 333 335 337 338 337 334 330 326 324 324 327 326 326 330 330 319
157 133 137 157 158 157 154 160 155 156 153 153 153 147 149 146 138 135 122 114 89 63 47 16 351 340 333 334 340 344 347 346 342 339 338 336 336 336 335 330 329 329 341
117 138 153 159 151 150 147 141 143 150 150 149 146 145 142 138 138 134 124 90 53 31 13 3 357 349 344 343 348 350 350 349 351 349 347 348 348 348 345 337 334 335 356